This is the latest recevied weather packets stored in our database for station/object KH6DH-13. If no packets are shown the sender has not sent any weather packets the latest 10 day(s).
| Time | Temp. | Humidity | Pressure | Rain* | Wind** | Luminosity | Snow |
|---|---|---|---|---|---|---|---|
| 1777356540 | 25° C | - | - | 0 mm | 0.45 m/s, 63° | - | - |
| 1777355939 | 25° C | - | - | 0 mm | 0.89 m/s, 37° | - | - |
| 1777355338 | 25.56° C | - | - | 0 mm | 0 m/s | - | - |
| 1777354737 | 25° C | - | - | 0 mm | 1.79 m/s, 83° | - | - |
| 1777354136 | 25.56° C | - | - | 0 mm | 1.34 m/s, 122° | - | - |
| 1777353535 | 25.56° C | - | - | 0 mm | 1.34 m/s, 100° | - | - |
| 1777352934 | 25.56° C | - | - | 0 mm | 0.45 m/s, 104° | - | - |
| 1777352333 | 25.56° C | - | - | 0 mm | 0.45 m/s, 48° | - | - |
| 1777351732 | 26.67° C | - | - | 0 mm | 1.34 m/s, 129° | - | - |
| 1777351131 | 26.67° C | - | - | 0 mm | 0 m/s | - | - |
| 1777350530 | 27.22° C | - | - | 0 mm | 2.24 m/s, 145° | - | - |
| 1777349929 | 27.22° C | - | - | 0 mm | 1.34 m/s, 347° | - | - |
| 1777349328 | 28.33° C | - | - | 0 mm | 0.89 m/s, 24° | - | - |
| 1777348727 | 28.89° C | - | - | 0 mm | 0.89 m/s, 115° | - | - |
| 1777348126 | 30° C | - | - | 0 mm | 1.79 m/s, 89° | - | - |
| 1777347525 | 30° C | - | - | 0 mm | 2.24 m/s, 63° | - | - |
| 1777346924 | 31.67° C | - | - | 0 mm | 2.68 m/s, 143° | - | - |
| 1777346323 | 33.33° C | - | - | 0 mm | 2.24 m/s, 75° | - | - |
| 1777345722 | 32.22° C | - | - | 0 mm | 2.68 m/s, 14° | - | - |
| 1777345121 | 31.67° C | - | - | 0 mm | 2.24 m/s, 60° | - | - |
| 1777344520 | 31.11° C | - | - | 0 mm | 1.79 m/s, 34° | - | - |
| 1777343919 | 31.67° C | - | - | 0 mm | 1.34 m/s, 70° | - | - |
| 1777343318 | 31.11° C | - | - | 0 mm | 1.79 m/s, 27° | - | - |
| 1777342717 | 30° C | - | - | 0 mm | 1.34 m/s, 80° | - | - |
| 1777342116 | 30° C | - | - | 0 mm | 1.79 m/s, 94° | - | - |
* Rain latest hour (hover to see other rain measurements)
** Current wind speed in m/s (hover to see current wind gust speed)